sat.trackr.live / text

‹ back to catalog

STARLINK-30793

NORAD 58185 · 2023-167L

PAYLOAD ACTIVE UNKNOWN

§ Identity

Operator
Country
US
Launch date
2023-10-30
Launch site
AFETR
Launch vehicle
Mass (kg)
RCS (m²)

Purposes: comms

External: N2YO · Heavens-Above · Gunter

§ Orbital elements

Epoch: 2026-09-20T08:03:16.622784Z

Period
94.27 min
Inclination
43.0049°
Eccentricity
0.0000944
Mean motion
15.27574480 rev/d
Perigee alt
482.4 km
Apogee alt
483.7 km
Semi-major
6,861.2 km
B*
7.6179e-6
RAAN
124.1385°
Arg perigee
254.4029°
Mean anomaly
105.6719°
Rev number
16,075

§ Raw data

STARLINK-307931 58185U 23167L   26263.33560906 -.00000052  00000+0  76179-5 0  99992 58185  43.0049 124.1385 0000944 254.4029 105.6719 15.27574480160757

JSON: /api/v1/satellites/58185 · /tle

For live sub-satellite position, see the globe view (requires WebGL).

§ Visibility from observer

Set your observer location to see the next 7 days of passes ≥ 10°. The values pass through the URL so the page stays shareable.

No JS? Fill the form by hand. The geolocation button needs JavaScript.